Asiasat 6

operational
NORAD ID: 40141 Int'l Des: 2014-052 Owner: ASIA Country: HK
HEOCIRCULARGSOGEO

About Asiasat 6

Description loading...

Live Position

Loading 3D Globe...

Upcoming Passes

Altitude History

Altitude vs Time

uPlot chart will show altitude changes over time

Two-Line Element Set

1 40141U 14052A 25346.76447042 -.00000350 00000-0 00000-0 0 9995
2 40141 0.0280 78.6697 0000660 192.5000 205.6451 1.00269652 41205
Epoch: Dec 12, 2025 • Age: 12 hours

Current Status

Altitude 35784.4 km
Velocity 3.07 km/s
Sub-Earth Point -0.02°S, 119.9°E
Launch Date Sep 7, 2014
Age 11.2 years
Type other

Technical Details

Classification Payload
Mass 3700.00 kg
Dry Mass 2500.00 kg
Total Mass 3700.00 kg
Length 4.50 m
Diameter 2.20 m
Span 27.00 m
Shape Box + 2 pan
Manufacturer SSL
Bus Type LS-1300
Phase Status In Orbit
Owner/State ASIA/HK

Large Constellations

Loading constellations...